Weather in Ukan

Russia / Udmurt Republic     58°09′49″N   52°02′56″E
temp.,
°C
wind,
m/s
gust,
m/s
humid.,
%
clouds,
%
prec.,
mm/h
press.,
hPa
HPBL,
m
5 march, fri
fri501:00−6wnw7139196 0.1 988498
04:00−9wnw7129197 0.2 993498
07:00−14wnw5109598 0.1 996305
10:00−13wnw588981 0.1 999413
13:00−9w46850 0.0 1000530
16:00−8w478838 0.0 1001734
19:00−9wsw4996100 0.2 1002266
22:00−11w4796100 0.6 1005186
6 march, sat
sat601:00−15wnw349698 0.1 100546
04:00−20wnw349971 0.1 100863
07:00−22wnw34993 0.0 100946
10:00−18wnw35947 0.0 1011237
13:00−13w458782 0.0 1011536
16:00−13w468791 0.1 1011666
19:00−17wsw339596 0.0 101126
22:00−17wsw239896 0.1 101131
7 march, sun
sun701:00−18wsw229894 0.1 101021
04:00−20sw2210096 0.1 101120
07:00−21sw22100100 0.1 101020
10:00−17sw2394100 0.1 1009209
13:00−13ssw2385100 0.0 1008469
16:00−12ssw2484100 0.1 1006695
19:00−16sse339498 0.0 100522
22:00−16se369799 0.1 1004130
8 march, mon
mon801:00−15se5993100 0.0 1001253
04:00−14se51095100 0.7 999418
07:00−14se51095100 0.9 996432
10:00−13ese5994100 1.6 996444
13:00−9se4693100 0.6 996519
16:00−7se3493100 1.1 997400
19:00−12sw339075 0.2 99830
22:00−12se129187 0.3 99823
9 march, tue
tue901:00−12ene2396100 0.3 99836
04:00−11nne3496100 0.6 99996
07:00−15n369598 0.1 1000153
10:00−14nnw469393 0.2 1003354
13:00−11nnw4589100 0.1 1005492
16:00−11nnw4588100 0.1 1007658
19:00−15n3395100 0.1 100963
22:00−16n3596100 0.2 1011144